{"data":{"norad_id":53652,"epoch":"2026-09-20T22:00:03.000096Z","epoch_age_seconds":45670,"freshness":"FRESH","line1":"1 53652U 22105E   26263.91670139  .00027213  00000+0  14638-2 0  9994","line2":"2 53652  97.2807 137.7590 0002314  79.4342  58.5148 15.14823284  5786","mean_motion":15.14823284,"eccentricity":0.0002314,"inclination_deg":97.2807,"raan_deg":137.759,"arg_perigee_deg":79.4342,"mean_anomaly_deg":58.5148,"bstar":0.0014638,"rev_number":578,"period_min":95.060593219664,"perigee_km":519.9185273495,"apogee_km":523.11168634455,"semimajor_km":6899.652106847,"source":"CELESTRAK","updated_at":"2026-09-21T09:00:32.949729Z"}}